AAL983 KMCO-KEWR

Flight info

Callsign AAL983
Flight time N/A
Altitude 37000
Route FATHE4 VIYAP Q87 ALWZZ OGRAE Q99 QUART PHLBO4
Aircraft A20N/M-SDE2E3FGHIRWXY/LB1

Departure

Time 2026-05-05 22:29
Airport Orlando International Airport (KMCO)

Arrival

Time N/A
Airport Newark Liberty International Airport (KEWR)
Time Latitude Longitude Altitude Speed Heading
2026-05-05 22:05 28.42582 -81.29991 106 ft 0 kts 275°
2026-05-05 22:20 28.42582 -81.29986 106 ft 1 kts 276°
2026-05-05 22:20 28.42582 -81.29968 105 ft 2 kts 266°
2026-05-05 22:21 28.42586 -81.29950 104 ft 2 kts 250°
2026-05-05 22:21 28.42593 -81.29933 105 ft 2 kts 236°
2026-05-05 22:21 28.42604 -81.29919 105 ft 2 kts 223°
2026-05-05 22:21 28.42617 -81.29907 106 ft 2 kts 212°
2026-05-05 22:22 28.42631 -81.29898 106 ft 2 kts 203°
2026-05-05 22:22 28.42647 -81.29892 106 ft 2 kts 195°
2026-05-05 22:22 28.42663 -81.29888 106 ft 2 kts 189°
2026-05-05 22:22 28.42677 -81.29886 105 ft 1 kts 184°
2026-05-05 22:23 28.42679 -81.29886 105 ft 0 kts 181°
2026-05-05 22:23 28.42664 -81.29885 106 ft 7 kts 176°
2026-05-05 22:23 28.42606 -81.29850 106 ft 11 kts 115°
2026-05-05 22:24 28.42554 -81.29796 106 ft 11 kts 164°
2026-05-05 22:24 28.42464 -81.29794 105 ft 16 kts 180°
2026-05-05 22:24 28.42329 -81.29792 105 ft 24 kts 179°
2026-05-05 22:24 28.42154 -81.29790 105 ft 26 kts 179°
2026-05-05 22:25 28.41979 -81.29789 105 ft 25 kts 179°
2026-05-05 22:25 28.41810 -81.29784 105 ft 24 kts 180°
2026-05-05 22:25 28.41647 -81.29784 105 ft 23 kts 178°
2026-05-05 22:25 28.41492 -81.29782 105 ft 22 kts 180°
2026-05-05 22:26 28.41342 -81.29780 104 ft 21 kts 180°
2026-05-05 22:26 28.41196 -81.29782 104 ft 21 kts 179°
2026-05-05 22:26 28.41054 -81.29779 103 ft 20 kts 180°
2026-05-05 22:26 28.40934 -81.29747 102 ft 17 kts 115°
2026-05-05 22:27 28.40930 -81.29690 101 ft 0 kts 88°
2026-05-05 22:27 28.40931 -81.29642 102 ft 14 kts 88°
2026-05-05 22:28 28.40977 -81.29566 102 ft 10 kts 358°
2026-05-05 22:28 28.40990 -81.29566 103 ft 10 kts 358°
2026-05-05 22:28 28.41315 -81.29567 105 ft 82 kts 359°
2026-05-05 22:28 28.42126 -81.29571 104 ft 155 kts 360°
2026-05-05 22:29 28.43387 -81.29587 275 ft 196 kts
2026-05-05 22:29 28.44854 -81.29653 664 ft 225 kts
2026-05-05 22:29 28.46373 -81.29275 1306 ft 227 kts 34°
2026-05-05 22:29 28.47658 -81.28290 2345 ft 222 kts 38°
2026-05-05 22:30 28.48969 -81.27240 2811 ft 241 kts 37°
2026-05-05 22:30 28.50425 -81.26160 3315 ft 255 kts 33°
2026-05-05 22:30 28.52105 -81.25397 3943 ft 266 kts 12°
2026-05-05 22:30 28.53955 -81.25133 4651 ft 270 kts
2026-05-05 22:31 28.55848 -81.25100 5355 ft 274 kts 357°
2026-05-05 22:31 28.57765 -81.25187 6094 ft 277 kts 353°
2026-05-05 22:31 28.59669 -81.25420 6679 ft 279 kts 350°
2026-05-05 22:31 28.61601 -81.25723 6969 ft 281 kts 349°
2026-05-05 22:32 28.63543 -81.26013 7012 ft 282 kts 350°
2026-05-05 22:32 28.65491 -81.26289 7010 ft 282 kts 350°
2026-05-05 22:32 28.67435 -81.26558 7006 ft 282 kts 351°
2026-05-05 22:32 28.69386 -81.26827 7009 ft 282 kts 350°
2026-05-05 22:33 28.71332 -81.27094 7010 ft 281 kts 350°
2026-05-05 22:33 28.73272 -81.27360 7013 ft 281 kts 351°
2026-05-05 22:33 28.75223 -81.27626 7008 ft 282 kts 351°
2026-05-05 22:33 28.77169 -81.27891 7012 ft 282 kts 350°
2026-05-05 22:34 28.79122 -81.28158 7011 ft 282 kts 351°
2026-05-05 22:34 28.81073 -81.28425 7009 ft 282 kts 351°
2026-05-05 22:34 28.83020 -81.28691 7008 ft 282 kts 351°
2026-05-05 22:34 28.84976 -81.28904 7226 ft 284 kts 353°
2026-05-05 22:35 28.86960 -81.29081 7928 ft 285 kts 353°
2026-05-05 22:35 28.88941 -81.29251 8772 ft 285 kts 353°
2026-05-05 22:35 28.90903 -81.29418 9566 ft 287 kts 352°
2026-05-05 22:35 28.92906 -81.29590 10275 ft 292 kts 352°
2026-05-05 22:36 28.94995 -81.29772 10595 ft 310 kts 352°
2026-05-05 22:36 28.97214 -81.29966 10847 ft 329 kts 353°
2026-05-05 22:36 28.99558 -81.30185 11101 ft 345 kts 352°
2026-05-05 22:36 29.01999 -81.30447 11338 ft 360 kts 352°
2026-05-05 22:37 29.04541 -81.30729 11626 ft 371 kts 352°
2026-05-05 22:37 29.07102 -81.31013 12075 ft 376 kts 352°
2026-05-05 22:37 29.09747 -81.31304 12597 ft 378 kts 353°
2026-05-05 22:37 29.12350 -81.31513 13118 ft 381 kts 354°
2026-05-05 22:38 29.15017 -81.31678 13639 ft 384 kts 355°
2026-05-05 22:38 29.17696 -81.31835 14146 ft 387 kts 355°
2026-05-05 22:38 29.20396 -81.31994 14619 ft 390 kts 355°
2026-05-05 22:38 29.23118 -81.32155 15114 ft 393 kts 354°
2026-05-05 22:39 29.25859 -81.32319 15610 ft 396 kts 354°
2026-05-05 22:39 29.28615 -81.32484 16108 ft 398 kts 354°
2026-05-05 22:39 29.31398 -81.32651 16608 ft 401 kts 354°
2026-05-05 22:39 29.34191 -81.32819 17102 ft 403 kts 354°
2026-05-05 22:40 29.37009 -81.32989 17569 ft 406 kts 353°
2026-05-05 22:40 29.39842 -81.33160 18010 ft 409 kts 353°
2026-05-05 22:40 29.42693 -81.33332 18442 ft 412 kts 353°
2026-05-05 22:40 29.45565 -81.33505 18833 ft 414 kts 353°
2026-05-05 22:41 29.48457 -81.33679 19236 ft 416 kts 353°
2026-05-05 22:41 29.51355 -81.33854 19628 ft 419 kts 353°
2026-05-05 22:41 29.54271 -81.34030 20026 ft 421 kts 353°
2026-05-05 22:41 29.57169 -81.34206 20418 ft 423 kts 352°
2026-05-05 22:42 29.60117 -81.34384 20819 ft 425 kts 352°
2026-05-05 22:42 29.63077 -81.34563 21222 ft 428 kts 352°
2026-05-05 22:42 29.66068 -81.34738 21625 ft 430 kts 352°
2026-05-05 22:42 29.69077 -81.34910 22036 ft 432 kts 352°
2026-05-05 22:43 29.72087 -81.35082 22440 ft 435 kts 352°
2026-05-05 22:43 29.75121 -81.35256 22839 ft 437 kts 352°
2026-05-05 22:43 29.78132 -81.35428 23224 ft 440 kts 352°
2026-05-05 22:43 29.81196 -81.35604 23613 ft 442 kts 352°
2026-05-05 22:44 29.84274 -81.35781 23951 ft 444 kts 352°
2026-05-05 22:44 29.87368 -81.35958 24277 ft 446 kts 351°
2026-05-05 22:44 29.90468 -81.36136 24620 ft 447 kts 351°
2026-05-05 22:44 29.93592 -81.36315 24955 ft 449 kts 351°
2026-05-05 22:45 29.96718 -81.36495 25277 ft 450 kts 351°
2026-05-05 22:45 29.99853 -81.36676 25585 ft 452 kts 351°
2026-05-05 22:45 30.02998 -81.36857 25899 ft 453 kts 351°
2026-05-05 22:45 30.06151 -81.37038 26213 ft 454 kts 351°
2026-05-05 22:46 30.09316 -81.37221 26519 ft 456 kts 351°
2026-05-05 22:46 30.12451 -81.37402 26797 ft 457 kts 351°
2026-05-05 22:46 30.15643 -81.37586 27111 ft 458 kts 351°
2026-05-05 22:46 30.18815 -81.37768 27541 ft 456 kts 351°
2026-05-05 22:47 30.21978 -81.37950 27988 ft 453 kts 350°
2026-05-05 22:47 30.25131 -81.38131 28385 ft 452 kts 350°
2026-05-05 22:47 30.28268 -81.38313 28787 ft 451 kts 350°
2026-05-05 22:47 30.31400 -81.38494 29198 ft 449 kts 350°
2026-05-05 22:48 30.34512 -81.38674 29617 ft 448 kts 349°
2026-05-05 22:48 30.37613 -81.38855 29980 ft 446 kts 349°
2026-05-05 22:48 30.40720 -81.39035 30335 ft 445 kts 349°
2026-05-05 22:48 30.43809 -81.39215 30645 ft 444 kts 349°
2026-05-05 22:49 30.46895 -81.39389 30959 ft 444 kts 349°
2026-05-05 22:49 30.49946 -81.39552 31251 ft 444 kts 349°
2026-05-05 22:49 30.53025 -81.39714 31581 ft 443 kts 349°
2026-05-05 22:49 30.56103 -81.39876 31899 ft 441 kts 349°
2026-05-05 22:50 30.59169 -81.40038 32218 ft 440 kts 349°
2026-05-05 22:50 30.62223 -81.40199 32490 ft 440 kts 349°
2026-05-05 22:50 30.65281 -81.40361 32768 ft 439 kts 349°
2026-05-05 22:50 30.68331 -81.40523 33066 ft 438 kts 349°
2026-05-05 22:51 30.71365 -81.40683 33351 ft 437 kts 349°
2026-05-05 22:51 30.74406 -81.40846 33571 ft 437 kts 348°
2026-05-05 22:51 30.77443 -81.41007 33828 ft 436 kts 348°
2026-05-05 22:51 30.80481 -81.41168 34097 ft 435 kts 348°
2026-05-05 22:52 30.83507 -81.41329 34305 ft 435 kts 348°
2026-05-05 22:52 30.86535 -81.41491 34457 ft 436 kts 348°
2026-05-05 22:52 30.89560 -81.41652 34623 ft 436 kts 348°
2026-05-05 22:52 30.92596 -81.41814 34810 ft 435 kts 348°
2026-05-05 22:53 30.95619 -81.41975 34993 ft 435 kts 348°
2026-05-05 22:53 30.98648 -81.42137 35143 ft 436 kts 348°
2026-05-05 22:53 31.01681 -81.42299 35319 ft 436 kts 348°
2026-05-05 22:53 31.04709 -81.42461 35491 ft 436 kts 348°
2026-05-05 22:54 31.07691 -81.42620 35664 ft 435 kts 348°
2026-05-05 22:54 31.10734 -81.42783 35794 ft 436 kts 348°
2026-05-05 22:54 31.13770 -81.42946 35948 ft 436 kts 348°
2026-05-05 22:54 31.16800 -81.43108 36106 ft 436 kts 348°
2026-05-05 22:55 31.19835 -81.43270 36260 ft 436 kts 348°
2026-05-05 22:55 31.22895 -81.43269 36388 ft 445 kts 355°
2026-05-05 22:55 31.25991 -81.42720 36504 ft 458 kts
2026-05-05 22:55 31.29049 -81.41517 36637 ft 468 kts 13°
2026-05-05 22:56 31.32017 -81.40051 36776 ft 471 kts 15°
2026-05-05 22:56 31.37988 -81.36797 36997 ft 474 kts 17°
2026-05-05 22:57 31.43958 -81.33466 37072 ft 478 kts 17°
2026-05-05 22:57 31.49974 -81.30152 37062 ft 478 kts 17°
2026-05-05 22:58 31.55992 -81.26866 37062 ft 477 kts 16°
2026-05-05 22:58 31.62031 -81.23578 37054 ft 477 kts 17°
2026-05-05 22:59 31.68061 -81.20290 37061 ft 478 kts 17°
2026-05-05 22:59 31.74068 -81.17008 37050 ft 478 kts 17°
2026-05-05 23:00 31.83119 -81.12052 37044 ft 478 kts 17°
2026-05-05 23:00 31.89163 -81.08736 37049 ft 478 kts 17°
2026-05-05 23:01 31.95161 -81.05441 37052 ft 479 kts 17°
2026-05-05 23:01 32.01208 -81.02109 37049 ft 479 kts 18°
2026-05-05 23:02 32.07206 -80.98763 37051 ft 479 kts 18°
2026-05-05 23:02 32.13230 -80.95385 37053 ft 479 kts 18°
2026-05-05 23:03 32.18229 -80.92579 37089 ft 478 kts 18°
2026-05-05 23:03 32.24243 -80.89203 37080 ft 479 kts 18°
2026-05-05 23:04 32.30251 -80.85822 37159 ft 478 kts 18°
2026-05-05 23:04 32.36266 -80.82437 37083 ft 479 kts 18°
2026-05-05 23:05 32.42283 -80.79047 37085 ft 478 kts 19°
2026-05-05 23:05 32.48290 -80.75657 37084 ft 477 kts 19°
2026-05-05 23:06 32.54246 -80.72290 37085 ft 477 kts 19°
2026-05-05 23:06 32.60228 -80.68903 37084 ft 476 kts 19°
2026-05-05 23:07 32.66218 -80.65506 37084 ft 476 kts 19°
2026-05-05 23:07 32.72182 -80.62106 37083 ft 475 kts 19°
2026-05-05 23:08 32.78080 -80.58629 37082 ft 475 kts 20°
2026-05-05 23:08 32.83991 -80.55099 37083 ft 475 kts 20°
2026-05-05 23:09 32.89900 -80.51571 37083 ft 474 kts 20°
2026-05-05 23:09 32.95785 -80.48061 37085 ft 473 kts 20°
2026-05-05 23:10 33.01645 -80.44565 37067 ft 473 kts 20°
2026-05-05 23:10 33.07517 -80.41057 37066 ft 472 kts 20°
2026-05-05 23:11 33.13388 -80.37544 37067 ft 472 kts 20°
2026-05-05 23:11 33.19249 -80.34031 37064 ft 471 kts 20°
2026-05-05 23:12 33.25104 -80.30516 37065 ft 470 kts 20°
2026-05-05 23:12 33.30909 -80.27027 37073 ft 469 kts 20°
2026-05-05 23:13 33.36741 -80.23516 37064 ft 469 kts 20°
2026-05-05 23:13 33.42572 -80.20000 37063 ft 468 kts 20°
2026-05-05 23:14 33.48393 -80.16485 37066 ft 468 kts 20°
2026-05-05 23:14 33.54202 -80.12972 37070 ft 467 kts 20°
2026-05-05 23:15 33.60004 -80.09458 37063 ft 467 kts 20°
2026-05-05 23:15 33.65773 -80.05959 37063 ft 466 kts 20°
2026-05-05 23:16 33.71559 -80.02444 37061 ft 465 kts 20°
2026-05-05 23:16 33.77340 -79.98927 37063 ft 465 kts 20°
2026-05-05 23:17 33.83074 -79.95434 37063 ft 464 kts 20°
2026-05-05 23:17 33.88838 -79.91917 37058 ft 464 kts 20°
2026-05-05 23:18 33.94590 -79.88403 37057 ft 463 kts 20°
2026-05-05 23:18 34.00332 -79.84888 37049 ft 463 kts 20°
2026-05-05 23:19 34.06075 -79.81368 37046 ft 462 kts 20°
2026-05-05 23:19 34.11799 -79.77854 37047 ft 461 kts 20°
2026-05-05 23:20 34.17528 -79.74332 37046 ft 461 kts 20°
2026-05-05 23:20 34.23238 -79.70817 37048 ft 460 kts 20°
2026-05-05 23:21 34.28918 -79.67314 37047 ft 460 kts 20°
2026-05-05 23:21 34.34607 -79.63800 37050 ft 459 kts 20°
2026-05-05 23:22 34.40307 -79.60275 37047 ft 459 kts 20°
2026-05-05 23:22 34.45990 -79.56754 37033 ft 459 kts 20°
2026-05-05 23:23 34.51699 -79.53312 37038 ft 457 kts 18°
2026-05-05 23:23 34.57405 -79.50033 37037 ft 456 kts 18°
2026-05-05 23:24 34.63137 -79.46717 37045 ft 456 kts 18°
2026-05-05 23:24 34.68855 -79.43393 37047 ft 455 kts 18°
2026-05-05 23:25 34.74567 -79.40065 37046 ft 455 kts 18°
2026-05-05 23:25 34.80270 -79.36734 37045 ft 454 kts 18°
2026-05-05 23:26 34.85968 -79.33402 37048 ft 454 kts 18°
2026-05-05 23:26 34.91654 -79.30071 37049 ft 453 kts 18°
2026-05-05 23:27 34.97332 -79.26741 37038 ft 453 kts 18°
2026-05-05 23:27 35.03012 -79.23403 37021 ft 452 kts 18°
2026-05-05 23:28 35.08673 -79.20071 37020 ft 452 kts 18°
2026-05-05 23:28 35.14334 -79.16734 37017 ft 451 kts 18°
2026-05-05 23:29 35.19959 -79.13414 37020 ft 451 kts 18°
2026-05-05 23:29 35.25600 -79.10079 37025 ft 450 kts 18°
2026-05-05 23:30 35.31249 -79.06734 37025 ft 450 kts 18°
2026-05-05 23:30 35.36889 -79.03389 37027 ft 449 kts 18°
2026-05-05 23:31 35.42512 -79.00049 37022 ft 449 kts 18°
2026-05-05 23:31 35.48097 -78.96726 37022 ft 449 kts 18°
2026-05-05 23:32 35.53724 -78.93373 37017 ft 449 kts 18°
2026-05-05 23:32 35.59341 -78.90021 37020 ft 449 kts 18°
2026-05-05 23:33 35.64950 -78.86669 37027 ft 448 kts 18°
2026-05-05 23:33 35.70564 -78.83308 37017 ft 448 kts 18°
2026-05-05 23:34 35.73368 -78.81627 36716 ft 448 kts 16°
2026-05-05 23:34 35.76147 -78.79953 36912 ft 438 kts 16°
2026-05-05 23:34 35.78820 -78.78341 37015 ft 430 kts 16°
2026-05-05 23:34 35.81495 -78.76732 37021 ft 426 kts 15°
2026-05-05 23:35 35.86822 -78.73537 37018 ft 426 kts 16°
2026-05-05 23:35 35.92156 -78.70330 37020 ft 427 kts 16°
2026-05-05 23:36 35.97501 -78.67107 37016 ft 427 kts 16°
2026-05-05 23:36 36.02846 -78.63878 37018 ft 427 kts 16°
2026-05-05 23:37 36.08160 -78.60663 37026 ft 428 kts 16°
2026-05-05 23:37 36.13511 -78.57421 37025 ft 428 kts 16°
2026-05-05 23:38 36.18860 -78.54174 37009 ft 428 kts 16°
2026-05-05 23:38 36.24220 -78.50916 37010 ft 429 kts 16°
2026-05-05 23:39 36.29579 -78.47653 37011 ft 429 kts 16°
2026-05-05 23:39 36.34949 -78.44379 37009 ft 430 kts 16°
2026-05-05 23:40 36.40322 -78.41098 37008 ft 430 kts 16°
2026-05-05 23:40 36.45701 -78.37808 37010 ft 431 kts 16°
2026-05-05 23:41 36.51085 -78.34510 37003 ft 431 kts 16°
2026-05-05 23:41 36.56452 -78.31217 37031 ft 432 kts 17°
2026-05-05 23:42 36.61847 -78.27902 37035 ft 433 kts 17°
2026-05-05 23:42 36.67259 -78.24571 37044 ft 433 kts 17°
2026-05-05 23:43 36.72633 -78.21259 37046 ft 434 kts 17°
2026-05-05 23:43 36.78048 -78.17916 37047 ft 434 kts 17°
2026-05-05 23:44 36.83468 -78.14564 37039 ft 435 kts 17°
2026-05-05 23:44 36.88891 -78.11205 37033 ft 435 kts 17°
2026-05-05 23:45 36.94325 -78.07834 36984 ft 435 kts 17°
2026-05-05 23:45 36.99753 -78.04461 36975 ft 436 kts 17°
2026-05-05 23:46 37.05180 -78.01084 36979 ft 436 kts 17°
2026-05-05 23:46 37.10626 -77.97689 36982 ft 437 kts 17°
2026-05-05 23:47 37.16040 -77.94309 36980 ft 437 kts 17°
2026-05-05 23:47 37.21494 -77.90899 36981 ft 438 kts 17°
2026-05-05 23:48 37.26948 -77.87482 36984 ft 438 kts 17°
2026-05-05 23:48 37.32406 -77.84057 36978 ft 439 kts 18°
2026-05-05 23:49 37.37860 -77.80630 36977 ft 439 kts 18°
2026-05-05 23:49 37.42396 -77.77775 36980 ft 439 kts 18°
2026-05-05 23:50 37.47871 -77.74325 36978 ft 439 kts 18°
2026-05-05 23:50 37.53296 -77.70706 36981 ft 445 kts 22°
2026-05-05 23:51 37.58556 -77.66514 36977 ft 448 kts 24°
2026-05-05 23:51 37.63805 -77.62262 36976 ft 448 kts 24°
2026-05-05 23:52 37.69056 -77.58008 36976 ft 449 kts 24°
2026-05-05 23:52 37.74325 -77.53735 36976 ft 449 kts 24°
2026-05-05 23:53 37.79536 -77.49501 36971 ft 450 kts 24°
2026-05-05 23:53 37.84816 -77.45206 36972 ft 450 kts 24°
2026-05-05 23:54 37.90081 -77.40915 36958 ft 450 kts 24°
2026-05-05 23:54 37.95364 -77.36601 36953 ft 451 kts 24°
2026-05-05 23:55 38.00635 -77.32293 36929 ft 451 kts 24°
2026-05-05 23:55 38.05901 -77.27986 36925 ft 451 kts 25°
2026-05-05 23:56 38.11142 -77.23691 36922 ft 451 kts 25°
2026-05-05 23:56 38.16408 -77.19369 36919 ft 451 kts 25°
2026-05-05 23:57 38.21675 -77.15038 36914 ft 451 kts 25°
2026-05-05 23:57 38.26958 -77.10687 36914 ft 451 kts 25°
2026-05-05 23:58 38.32129 -77.06065 36911 ft 455 kts 29°
2026-05-05 23:58 38.37180 -77.01187 36904 ft 456 kts 29°
2026-05-05 23:59 38.42202 -76.96335 36905 ft 456 kts 29°
2026-05-05 23:59 38.47259 -76.91452 36674 ft 456 kts 29°
2026-05-06 00:00 38.49784 -76.89012 36414 ft 456 kts 29°
2026-05-06 00:00 38.52328 -76.86553 36170 ft 457 kts 30°
2026-05-06 00:00 38.54859 -76.84104 35912 ft 458 kts 30°
2026-05-06 00:00 38.57401 -76.81642 35667 ft 459 kts 30°
2026-05-06 00:01 38.59954 -76.79167 35427 ft 461 kts 30°
2026-05-06 00:01 38.62510 -76.76687 35186 ft 462 kts 30°
2026-05-06 00:01 38.65071 -76.74200 34943 ft 463 kts 31°
2026-05-06 00:01 38.67633 -76.71709 34708 ft 464 kts 31°
2026-05-06 00:02 38.70212 -76.69200 34481 ft 465 kts 31°
2026-05-06 00:02 38.72791 -76.66687 34242 ft 466 kts 31°
2026-05-06 00:02 38.75373 -76.64170 34002 ft 467 kts 31°
2026-05-06 00:02 38.77963 -76.61643 33745 ft 468 kts 31°
2026-05-06 00:03 38.80555 -76.59111 33477 ft 469 kts 31°
2026-05-06 00:03 38.83163 -76.56561 33214 ft 471 kts 32°
2026-05-06 00:03 38.85764 -76.54016 32947 ft 472 kts 32°
2026-05-06 00:03 38.88343 -76.51490 32688 ft 473 kts 32°
2026-05-06 00:04 38.90998 -76.48886 32419 ft 474 kts 32°
2026-05-06 00:04 38.93589 -76.46344 32163 ft 475 kts 32°
2026-05-06 00:04 38.96216 -76.43764 31909 ft 476 kts 32°
2026-05-06 00:04 38.98848 -76.41175 31648 ft 477 kts 33°
2026-05-06 00:05 39.04075 -76.35846 31153 ft 482 kts 37°
2026-05-06 00:05 39.06580 -76.32955 30916 ft 483 kts 38°
2026-05-06 00:05 39.09070 -76.30036 30676 ft 485 kts 39°
2026-05-06 00:06 39.11573 -76.27100 30421 ft 486 kts 39°
2026-05-06 00:06 39.14078 -76.24165 30186 ft 487 kts 39°
2026-05-06 00:06 39.16551 -76.21271 29944 ft 487 kts 39°
2026-05-06 00:06 39.19050 -76.18344 29400 ft 485 kts 39°
2026-05-06 00:07 39.21557 -76.15408 28554 ft 486 kts 39°
2026-05-06 00:07 39.24071 -76.12462 27719 ft 488 kts 40°
2026-05-06 00:07 39.26596 -76.09502 27136 ft 494 kts 40°
2026-05-06 00:07 39.29152 -76.06501 26508 ft 499 kts 40°
2026-05-06 00:08 39.31728 -76.03474 26052 ft 503 kts 40°
2026-05-06 00:08 39.34328 -76.00414 25910 ft 506 kts 40°
2026-05-06 00:08 39.36939 -75.97338 25895 ft 507 kts 40°
2026-05-06 00:08 39.39541 -75.94269 25893 ft 506 kts 40°
2026-05-06 00:09 39.42141 -75.91199 25901 ft 507 kts 40°
2026-05-06 00:09 39.44745 -75.88123 26236 ft 506 kts 40°
2026-05-06 00:09 39.47334 -75.85058 26579 ft 502 kts 40°
2026-05-06 00:09 39.49924 -75.81992 26338 ft 502 kts 40°
2026-05-06 00:10 39.52474 -75.78971 26086 ft 504 kts 40°
2026-05-06 00:10 39.55062 -75.75901 25846 ft 506 kts 40°
2026-05-06 00:10 39.57661 -75.72813 25603 ft 507 kts 41°
2026-05-06 00:10 39.60268 -75.69714 25368 ft 508 kts 41°
2026-05-06 00:11 39.62860 -75.66629 24844 ft 505 kts 41°
2026-05-06 00:11 39.65464 -75.63527 23936 ft 508 kts 41°
2026-05-06 00:11 39.68057 -75.60432 23196 ft 505 kts 41°
2026-05-06 00:11 39.70622 -75.57351 22391 ft 501 kts 42°
2026-05-06 00:12 39.73169 -75.54284 21635 ft 497 kts 42°
2026-05-06 00:12 39.75692 -75.51242 20872 ft 493 kts 42°
2026-05-06 00:12 39.78164 -75.48259 20117 ft 489 kts 41°
2026-05-06 00:12 39.80643 -75.45265 19360 ft 485 kts 41°
2026-05-06 00:13 39.83106 -75.42289 18601 ft 482 kts 41°
2026-05-06 00:13 39.85546 -75.39336 17825 ft 478 kts 41°
2026-05-06 00:13 39.87974 -75.36396 17100 ft 471 kts 41°
2026-05-06 00:13 39.90355 -75.33508 16356 ft 465 kts 41°
2026-05-06 00:14 39.92706 -75.30655 15615 ft 460 kts 41°
2026-05-06 00:14 39.95037 -75.27825 14888 ft 454 kts 41°
2026-05-06 00:14 39.97340 -75.25025 14167 ft 450 kts 41°
2026-05-06 00:14 39.99586 -75.22290 13427 ft 445 kts 41°
2026-05-06 00:15 40.01834 -75.19551 12685 ft 439 kts 41°
2026-05-06 00:15 40.04050 -75.16849 11991 ft 433 kts 41°
2026-05-06 00:15 40.06238 -75.14178 11377 ft 425 kts 41°
2026-05-06 00:15 40.08357 -75.11588 11061 ft 409 kts 41°
2026-05-06 00:16 40.10385 -75.09105 11008 ft 388 kts 41°
2026-05-06 00:16 40.12300 -75.06758 11007 ft 367 kts 40°
2026-05-06 00:16 40.14122 -75.04524 10845 ft 353 kts 40°
2026-05-06 00:16 40.15902 -75.02344 10472 ft 348 kts 40°
2026-05-06 00:17 40.17645 -75.00207 10223 ft 338 kts 40°
2026-05-06 00:17 40.19329 -74.98140 10073 ft 326 kts 40°
2026-05-06 00:17 40.20945 -74.96154 9910 ft 315 kts 40°
2026-05-06 00:17 40.22549 -74.94185 9374 ft 316 kts 40°
2026-05-06 00:18 40.24152 -74.92217 8950 ft 314 kts 40°
2026-05-06 00:18 40.25688 -74.90248 8586 ft 312 kts 43°
2026-05-06 00:18 40.27175 -74.88200 8218 ft 310 kts 44°
2026-05-06 00:18 40.28641 -74.86146 7966 ft 310 kts 44°
2026-05-06 00:19 40.30119 -74.84070 7758 ft 312 kts 45°
2026-05-06 00:19 40.31598 -74.81990 7598 ft 313 kts 45°
2026-05-06 00:19 40.33086 -74.79897 7434 ft 313 kts 45°
2026-05-06 00:19 40.34570 -74.77809 7273 ft 314 kts 45°
2026-05-06 00:20 40.36061 -74.75713 7112 ft 313 kts 45°
2026-05-06 00:20 40.37547 -74.73620 6940 ft 313 kts 44°
2026-05-06 00:20 40.39019 -74.71547 6779 ft 313 kts 45°
2026-05-06 00:20 40.40504 -74.69455 6612 ft 313 kts 45°
2026-05-06 00:21 40.42099 -74.67515 6418 ft 310 kts 28°
2026-05-06 00:21 40.44049 -74.66462 6294 ft 300 kts
2026-05-06 00:21 40.46078 -74.65860 6139 ft 299 kts
2026-05-06 00:21 40.48126 -74.65332 5975 ft 299 kts
2026-05-06 00:22 40.50142 -74.64816 5826 ft 298 kts
2026-05-06 00:22 40.52180 -74.64287 5669 ft 298 kts
2026-05-06 00:22 40.54214 -74.63752 5519 ft 299 kts
2026-05-06 00:22 40.56248 -74.63213 5363 ft 298 kts
2026-05-06 00:23 40.58280 -74.62671 5208 ft 298 kts
2026-05-06 00:23 40.60315 -74.62127 5053 ft 298 kts
2026-05-06 00:23 40.62353 -74.61581 4898 ft 298 kts
2026-05-06 00:23 40.64381 -74.61037 4749 ft 296 kts
2026-05-06 00:24 40.66407 -74.60494 4590 ft 298 kts
2026-05-06 00:24 40.68435 -74.59952 4432 ft 298 kts
2026-05-06 00:24 40.70464 -74.59407 4273 ft 297 kts
2026-05-06 00:24 40.72496 -74.58860 4121 ft 297 kts
2026-05-06 00:25 40.74522 -74.58315 3960 ft 298 kts
2026-05-06 00:25 40.76534 -74.57774 3815 ft 297 kts
2026-05-06 00:25 40.78586 -74.57223 3668 ft 299 kts
2026-05-06 00:25 40.80582 -74.56434 3479 ft 301 kts 26°
2026-05-06 00:26 40.82134 -74.54623 3347 ft 297 kts 61°
2026-05-06 00:26 40.82621 -74.53177 3260 ft 292 kts 82°
2026-05-06 00:26 40.82705 -74.50552 3089 ft 284 kts 102°
2026-05-06 00:26 40.82464 -74.47977 2980 ft 283 kts 104°
2026-05-06 00:27 40.82190 -74.45410 2958 ft 282 kts 104°
2026-05-06 00:27 40.81929 -74.42834 2962 ft 281 kts 104°
2026-05-06 00:27 40.81685 -74.40317 2960 ft 275 kts 103°
2026-05-06 00:27 40.81463 -74.37887 2960 ft 258 kts 104°
2026-05-06 00:28 40.81258 -74.35587 2966 ft 248 kts 104°
2026-05-06 00:28 40.81050 -74.33332 2963 ft 249 kts 104°
2026-05-06 00:28 40.80844 -74.31046 2963 ft 253 kts 101°
2026-05-06 00:28 40.81084 -74.28702 2963 ft 264 kts 71°
2026-05-06 00:29 40.82143 -74.26738 2967 ft 267 kts 41°
2026-05-06 00:29 40.83667 -74.25341 2960 ft 267 kts 30°
2026-05-06 00:29 40.85289 -74.24111 2967 ft 269 kts 28°
2026-05-06 00:29 40.86924 -74.22914 2971 ft 264 kts 27°
2026-05-06 00:30 40.88472 -74.21775 2982 ft 246 kts 27°
2026-05-06 00:30 40.89929 -74.20618 2969 ft 243 kts 38°
2026-05-06 00:30 40.90946 -74.18876 2971 ft 240 kts 69°
2026-05-06 00:30 40.91549 -74.16835 2963 ft 240 kts 76°
2026-05-06 00:31 40.92061 -74.14748 2956 ft 241 kts 77°
2026-05-06 00:31 40.92576 -74.12606 2955 ft 240 kts 77°
2026-05-06 00:31 40.93072 -74.10545 2952 ft 239 kts 77°
2026-05-06 00:31 40.93576 -74.08446 2956 ft 238 kts 77°
2026-05-06 00:32 40.94074 -74.06358 2953 ft 240 kts 77°
2026-05-06 00:32 40.94573 -74.04250 2953 ft 240 kts 77°
2026-05-06 00:32 40.94827 -74.02116 2957 ft 230 kts 100°
2026-05-06 00:32 40.94303 -74.00276 2951 ft 202 kts 144°
2026-05-06 00:33 40.93150 -73.99583 2948 ft 175 kts 190°
2026-05-06 00:33 40.92141 -74.00267 2875 ft 164 kts 229°
2026-05-06 00:33 40.91381 -74.01379 2594 ft 164 kts 225°
2026-05-06 00:33 40.90533 -74.02417 2528 ft 168 kts 220°
2026-05-06 00:34 40.89582 -74.03342 2520 ft 171 kts 214°
2026-05-06 00:34 40.88901 -74.03879 2520 ft 171 kts 211°
2026-05-06 00:34 40.87839 -74.04598 2499 ft 171 kts 209°
2026-05-06 00:34 40.86429 -74.05510 2493 ft 170 kts 209°
2026-05-06 00:35 40.85369 -74.06199 2492 ft 170 kts 209°
2026-05-06 00:35 40.84311 -74.06891 2420 ft 169 kts 208°
2026-05-06 00:35 40.83603 -74.07355 2345 ft 165 kts 208°
2026-05-06 00:35 40.82616 -74.07999 2221 ft 150 kts 209°
2026-05-06 00:36 40.81739 -74.08567 2073 ft 135 kts 208°